Terminal Aerodrome Forecast
Issued by NWS Binghamton, NY

Home | Current Version | Previous Version | Text Only | Print | Product List | Glossary On
Versions: 1 2 3 4 5 6 7 8 9 10 11 12 13 14 15 16 17 18 19 20 21
000
FTUS41 KBGM 312300
TAFAVP
TAF
KAVP 312328Z 0100/0124 22004KT P6SM SCT090
     FM010200 13003KT P6SM FEW080 SCT250
     FM011300 20007KT P6SM SCT050 BKN200 PROB30 0116/0120 -SHRA
      OVC050=

USA.gov is the U.S. government's official web portal to all federal, state and local government web resources and services.